Weather History for Wooster, OH

Change the Weather History Date:

Monday, January 28, 2013

  Actual Average Record
Temperature  
Mean Temperature 38 °F -  
Max Temperature 46 °F 31 °F 59 °F (2002)
Min Temperature 30 °F 16 °F -14 °F (2014)
Degree Days  
Heating Degree Days 27    
Moisture  
Dew Point 38 °F    
Average Humidity 94    
Maximum Humidity 100    
Minimum Humidity 80    
Precipitation  
Precipitation 0.36 in - - ()
Sea Level Pressure  
Sea Level Pressure 30.06 in    
Wind  
Wind Speed 12 mph (SSW)    
Max Wind Speed 20 mph    
Max Gust Speed 25 mph    
Visibility 3 miles    
Events Fog , Rain    
Averages and records for this station are not official NWS values.
T = Trace of Precipitation, MM = Missing Value Source: NWS Daily Summary

Daily Weather History Graph

Daily Weather History Graph

Search for Another Location

Airport:

Trip Planner

Search our weather history database for the weather conditions in past years. The results will help you decide how hot, cold, wet, or windy it might be!

Date:

Astronomy

Jan. 28, 2013 Rise Set
Actual Time 7:41 AM EST 5:40 PM EST
Civil Twilight 7:12 AM EST 6:09 PM EST
Nautical Twilight 6:38 AM EST 6:42 PM EST
Astronomical Twilight 6:06 AM EST 7:15 PM EST
Moon 7:34 PM EST (1/28) 8:05 AM EST (1/28)
Length of Visible Light 10h 57m
Length of Day
9h 58m
Full, 98% of the Moon is Illuminated
Jan 28
Full
Feb 3
Last Quarter
Feb 10
New
Feb 17
First Quarter
Feb 25
Full

Hourly Weather History & Observations

Time (EST) Temp. Windchill Dew Point Humidity Pressure Visibility Wind Dir Wind Speed Gust Speed Precip Events Conditions
12:14 AM 30.2 °F 23.4 °F 24.8 °F 80% 30.23 in 5.0 mi SSE 6.9 mph - 0.02 in Rain Light Freezing Rain
12:56 AM 30.9 °F 21.2 °F 26.1 °F 82% 30.24 in 4.0 mi SSE 12.7 mph - 0.05 in Rain Light Freezing Rain
1:56 AM 30.9 °F 20.7 °F 28.0 °F 89% 30.20 in 4.0 mi South 13.8 mph - 0.05 in Rain Light Freezing Rain
2:15 AM 30.2 °F 21.3 °F 28.4 °F 93% 30.17 in 4.0 mi South 10.4 mph - 0.02 in   Overcast
2:35 AM 32.0 °F 23.0 °F 28.4 °F 87% 30.18 in 3.0 mi South 11.5 mph - 0.07 in   Overcast
2:56 AM 32.0 °F 23.0 °F 30.0 °F 92% 30.20 in 3.0 mi South 11.5 mph - 0.11 in   Overcast
3:13 AM 32.0 °F 22.1 °F 30.2 °F 93% 30.15 in 3.0 mi South 13.8 mph - 0.04 in Rain Light Freezing Rain
3:16 AM 32.0 °F 22.1 °F 30.2 °F 93% 30.15 in 3.0 mi South 13.8 mph - 0.04 in Rain Light Freezing Rain
3:21 AM 32.0 °F 23.0 °F 30.2 °F 93% 30.15 in 2.5 mi South 11.5 mph - 0.05 in Rain Light Freezing Rain
3:33 AM 32.0 °F 22.5 °F 30.2 °F 93% 30.14 in 3.0 mi South 12.7 mph - 0.06 in Rain Light Freezing Rain
3:56 AM 32.0 °F 22.1 °F 30.9 °F 96% 30.17 in 4.0 mi South 13.8 mph - 0.07 in Rain Light Freezing Rain
4:04 AM 33.8 °F 23.9 °F 30.2 °F 87% 30.12 in 4.0 mi South 15.0 mph - 0.00 in Rain Light Rain
4:14 AM 33.8 °F 24.8 °F 30.2 °F 87% 30.12 in 5.0 mi South 12.7 mph - 0.00 in   Overcast
4:56 AM 34.0 °F 23.8 °F 32.0 °F 92% 30.14 in 5.0 mi South 16.1 mph - 0.00 in   Overcast
5:27 AM 33.8 °F 24.8 °F 32.0 °F 93% 30.08 in 4.0 mi South 12.7 mph 20.7 mph N/A   Overcast
5:56 AM 34.0 °F 25.5 °F 33.1 °F 96% 30.12 in 2.5 mi SSW 11.5 mph - N/A   Overcast
6:43 AM 33.8 °F 25.3 °F 33.8 °F 100% 30.07 in 1.5 mi SSW 11.5 mph - 0.01 in   Overcast
6:56 AM 34.0 °F 26.0 °F 33.1 °F 96% 30.11 in 1.5 mi SSW 10.4 mph - 0.01 in   Overcast
7:17 AM 33.8 °F 24.8 °F 33.8 °F 100% 30.06 in 2.5 mi SSW 12.7 mph - 0.00 in Rain Light Rain
7:42 AM 35.6 °F 28.0 °F 33.8 °F 93% 30.05 in 3.0 mi SSW 10.4 mph - 0.00 in   Overcast
7:56 AM 35.1 °F 26.9 °F 34.0 °F 96% 30.09 in 4.0 mi SSW 11.5 mph - 0.00 in   Overcast
8:29 AM 35.6 °F 26.2 °F 33.8 °F 93% 30.04 in 1.8 mi SSW 15.0 mph - 0.01 in Rain Rain
8:42 AM 35.6 °F 26.6 °F 35.6 °F 100% 30.04 in 3.0 mi SSW 13.8 mph - 0.02 in Rain Light Rain
8:49 AM 35.6 °F 26.2 °F 35.6 °F 100% 30.03 in 3.0 mi SSW 15.0 mph - 0.02 in   Overcast
8:56 AM 36.0 °F 27.1 °F 35.1 °F 97% 30.07 in 3.0 mi SSW 13.8 mph - 0.02 in Rain Light Rain
10:56 AM 39.0 °F 29.9 °F 37.0 °F 93% 30.05 in 4.0 mi SW 17.3 mph 25.3 mph N/A   Overcast
11:13 AM 39.2 °F 29.8 °F 37.4 °F 93% 30.01 in 2.5 mi SW 18.4 mph 25.3 mph N/A   Overcast
11:25 AM 39.2 °F 29.6 °F 37.4 °F 93% 30.01 in 3.0 mi SW 19.6 mph - N/A   Overcast
11:40 AM 41.0 °F 31.9 °F 39.2 °F 93% 30.00 in 4.0 mi SW 19.6 mph - N/A   Overcast
11:56 AM 42.1 °F 33.3 °F 39.9 °F 92% 30.02 in 5.0 mi SW 19.6 mph - N/A   Overcast
12:56 PM 43.0 °F 36.0 °F 41.0 °F 93% 30.01 in 2.0 mi SW 13.8 mph - 0.00 in Rain Light Rain
1:10 PM 42.8 °F 35.4 °F 41.0 °F 93% 29.98 in 4.0 mi SW 15.0 mph - 0.01 in   Overcast
1:20 PM 42.8 °F 36.2 °F 41.0 °F 93% 29.97 in 2.0 mi SW 12.7 mph - 0.02 in Rain Light Rain
1:31 PM 42.8 °F 36.6 °F 42.8 °F 100% 29.97 in 4.0 mi SW 11.5 mph - 0.02 in Rain Light Rain
1:56 PM 44.1 °F 37.4 °F 42.1 °F 93% 29.99 in 4.0 mi SW 13.8 mph - 0.02 in   Overcast
2:30 PM 44.6 °F 38.1 °F 42.8 °F 93% 29.96 in 2.5 mi SW 13.8 mph - 0.00 in Rain Light Rain
2:47 PM 44.6 °F 38.4 °F 42.8 °F 93% 29.96 in 3.0 mi SW 12.7 mph - 0.00 in   Overcast
2:56 PM 45.0 °F 38.9 °F 43.0 °F 93% 29.98 in 3.0 mi SW 12.7 mph - 0.00 in   Overcast
3:30 PM 44.6 °F 38.1 °F 42.8 °F 93% 29.97 in 1.8 mi SW 13.8 mph - 0.00 in Rain Light Rain
3:56 PM 45.0 °F 38.9 °F 44.1 °F 97% 29.99 in 1.5 mi SW 12.7 mph - 0.01 in   Overcast
4:39 PM 46.4 °F 40.7 °F 44.6 °F 93% 29.97 in 1.5 mi WSW 12.7 mph - 0.00 in   Overcast
4:56 PM 45.0 °F 39.7 °F 44.1 °F 97% 30.00 in 1.2 mi WSW 10.4 mph - 0.00 in   Overcast
5:13 PM 46.4 °F 41.1 °F 44.6 °F 93% 29.98 in 1.0 mi WSW 11.5 mph - N/A   Overcast
5:22 PM 46.4 °F 41.1 °F 44.6 °F 93% 29.98 in 0.8 mi SW 11.5 mph - N/A   Overcast
5:39 PM 46.4 °F 40.7 °F 44.6 °F 93% 29.98 in 1.2 mi SW 12.7 mph - N/A   Overcast
6:41 PM 46.4 °F 41.1 °F 44.6 °F 93% 30.00 in 2.0 mi WSW 11.5 mph - N/A   Overcast
6:56 PM 46.0 °F 41.0 °F 45.0 °F 96% 30.03 in 2.0 mi WSW 10.4 mph - N/A   Overcast
7:52 PM 46.4 °F 41.9 °F 46.4 °F 100% 30.01 in 1.8 mi WSW 9.2 mph - N/A   Overcast
7:56 PM 46.9 °F - 46.0 °F 97% 30.04 in 1.8 mi WSW 9.2 mph - N/A   Overcast
8:30 PM 46.4 °F 41.9 °F 46.4 °F 100% 30.02 in 2.0 mi WSW 9.2 mph - N/A   Overcast
8:46 PM 46.4 °F 41.9 °F 46.4 °F 100% 30.02 in 1.8 mi WSW 9.2 mph - N/A   Overcast
8:56 PM 46.9 °F - 46.0 °F 97% 30.04 in 1.8 mi WSW 8.1 mph - N/A   Overcast
9:56 PM 46.9 °F - 46.0 °F 97% 30.05 in 1.0 mi SW 8.1 mph - N/A   Overcast
10:05 PM 46.4 °F 43.5 °F 46.4 °F 100% 30.03 in 0.8 mi WSW 5.8 mph - 0.01 in   Overcast
10:56 PM 46.0 °F 43.9 °F 46.0 °F 100% 30.06 in 0.5 mi SW 4.6 mph - 0.01 in Fog Fog
11:56 PM 46.0 °F 43.9 °F 45.0 °F 96% 30.06 in 0.5 mi SW 4.6 mph - 0.01 in Fog Fog